North Las Vegas Airport Las Vegas US
ICAO: KVGT
IATA: VGT
Category: Medium
Scheduled Services: No

Elevation: 2205 ft
TransAlt. 18000 ft.

Airport Communications:
LAS VEGAS APP:119.4
NELLIS APP:118.125
ASOS:118.05
ATIS:118.05
CLNC DEL:124
CTAF:125.7
GND:121.7
TWR:125.7
UNICOM:122.95

KVGT Zoom In..

If you have problems with the map follow the link
https://www.worldairports.se/pages/airport.php?
ICAO=KVGT

Runways:

(A) RW 07 length 5005 ft width 75 ft
---- / hdg 74

(B) RW 12L length 4203 ft width 75 ft
ILS 110.70 / hdg 120

(C) RW 12R length 5001 ft width 75 ft
---- / hdg 120

(D) RW 25 length 5005 ft width 75 ft
---- / hdg 254

(E) RW 30L length 5001 ft width 75 ft
---- / hdg 300

(F) RW 30R length 4203 ft width 75 ft
---- / hdg 300

Location; KVGT
Day. 18 / Time. 21.53 Zulu
* Altimeter: 30.22
* Temperature: 16° c. 60.8°f.
* Wind from: 120° Speed 04 kn.
Dewpoint: 01° c.
Visibility: 10 Statute Miles.
Clouds: Clear (automated report).

KVGT 182153Z 12004KT 10SM CLR 16/01 A3022 RMK AO2 SLP248 T01560006


Wind From 120°
Speed 04 kn.

 
 
jpsmedia.com for Web Design worldairports.se 2019   terms of use